{"data":{"norad_id":65537,"intl_designator":"2025-200T","name":"STARLINK-35136","alt_names":[],"object_type":"PAYLOAD","status":"ACTIVE","operator":null,"country":"US","launch_date":"2025-09-06","launch_site_code":"AFWTR","launch_vehicle":null,"mission":null,"orbit_class":"UNKNOWN","rcs_meters":null,"size_class":null,"mass_kg":null,"dimensions":null,"purposes":["comms"],"wikipedia_slug":null,"has_3d_model":false,"image_url":null,"decayed_at":null,"tle_current":{"epoch":"2026-09-20T22:30:10.358496Z","epoch_age_seconds":74168,"freshness":"FRESH","line1":"1 65537U 25200T   26263.93761989  .00011209  00000+0  34896-3 0  9991","line2":"2 65537  97.2860 330.3946 0000908  97.8061 262.3285 15.33449556 58620","mean_motion":15.33449556,"eccentricity":9.08e-5,"inclination_deg":97.286,"raan_deg":330.3946,"arg_perigee_deg":97.8061,"mean_anomaly_deg":262.3285,"bstar":0.00034896,"rev_number":5862,"period_min":93.905925654068,"perigee_km":464.9082141321,"apogee_km":466.15102399012,"semimajor_km":6843.6666190611,"source":"CELESTRAK","updated_at":"2026-09-21T09:00:35.651278Z"}}}